Observations for Trim Market St
| Time | AQI | Temp °C | Hum % | Pres Pa | CO μg/m³ | H₂S μg/m³ | NO μg/m³ | NO₂ μg/m³ | O₃ μg/m³ | SO₂ μg/m³ | PM1 μg/m³ | PM2.5 μg/m³ | PM10 μg/m³ |
|---|---|---|---|---|---|---|---|---|---|---|---|---|---|
| Saturday 22 August 2026 | |||||||||||||
| 21:19 | 2 | 18.1 | 54 | 56,020 | 0.17 | 0 | 1.34 | 24.12 | 58.05 | 0 | 2.14 | 6.34 | 8.25 |
| 21:18 | 2 | 18.1 | 54 | 56,006 | 0.21 | 0 | 1.32 | 31.66 | 49.77 | 0 | 1.43 | 5.32 | 6.81 |
| 21:16 | 2 | 18.2 | 54 | 55,946 | 0.19 | 0 | 1.54 | 16.95 | 62.62 | 0 | 2.14 | 4.82 | 6.81 |
| 21:15 | 2 | 18.2 | 54 | 55,925 | 0.13 | 0 | 1.68 | 18.29 | 65.84 | 0 | 1.43 | 4.83 | 6.08 |
| 21:14 | 2 | 18.2 | 54 | 55,903 | 0.17 | 0 | 1.4 | 20.08 | 57.3 | 0 | 0.71 | 5.34 | 8.25 |
| 21:12 | 2 | 18.3 | 54 | 55,860 | 0.36 | 0 | 1.32 | 55.66 | 19.61 | 0 | 2.85 | 5.85 | 8.97 |
| 21:11 | 2 | 18.3 | 54 | 55,855 | 0.21 | 0 | 1.25 | 23.02 | 56.78 | 0 | 2.85 | 6.36 | 9.7 |
| 21:10 | 2 | 18.3 | 54 | 55,845 | 0.21 | 0 | 2.87 | 26.15 | 57.88 | 0 | 2.85 | 4.84 | 7.53 |
| 21:09 | 2 | 18.3 | 54 | 55,827 | 0.15 | 0 | 2.83 | 25.79 | 56.35 | 0 | 2.14 | 4.84 | 6.8 |
| 21:04 | 2 | 18.4 | 53 | 55,836 | 0.11 | 0 | 1.27 | 18.04 | 63.57 | 0 | 1.43 | 4.86 | 6.08 |
| 21:03 | 2 | 18.4 | 53 | 55,847 | 0.11 | 0 | 1.29 | 20.27 | 62.95 | 0 | 2.14 | 4.36 | 6.07 |
| 21:01 | 2 | 18.5 | 53 | 55,914 | 0.17 | 0 | 2.17 | 33.55 | 48.33 | 0 | 2.14 | 5.89 | 7.53 |
| 20:55 | 2 | 18.6 | 52 | 56,574 | 0.24 | 0 | 2.53 | 53.67 | 27.7 | 0 | 2.85 | 6.43 | 8.99 |
| 20:50 | 2 | 18.7 | 52 | 57,406 | 0.16 | 0 | 1.28 | 30.24 | 53.94 | 0 | 2.85 | 6.97 | 9.73 |
| 20:49 | 2 | 18.8 | 52 | 57,660 | 0.14 | 0 | 1.27 | 31.63 | 52.42 | 0 | 2.14 | 5.44 | 8.26 |
| 20:48 | 2 | 18.8 | 52 | 58,043 | 0.15 | 0 | 1.24 | 37.8 | 51.2 | 0 | 2.14 | 6.47 | 8.26 |
| 20:47 | 2 | 18.8 | 52 | 58,426 | 0.13 | 0 | 1.3 | 33.09 | 50.81 | 0 | 3.56 | 5.45 | 9.73 |
| 20:46 | 2 | 18.9 | 52 | 58,722 | 0.18 | 0 | 1.32 | 33.41 | 49.73 | 0 | 2.85 | 8.01 | 11.21 |
| 20:45 | 2 | 18.9 | 52 | 59,053 | 0.19 | 0 | 1.31 | 30.85 | 58.25 | 0 | 2.14 | 5.46 | 8.26 |
| 20:44 | 2 | 18.9 | 51 | 59,545 | 0.25 | 0 | 1.36 | 41.33 | 42.08 | 0 | 10.69 | 12.13 | 17.85 |